Regional Weather Roundup
Issued by NWS

Home | Current Version | Previous Version | Text Only | Print | Product List | Glossary On
Versions: 1 2 3 4 5 6 7 8 9 10 11 12 13 14 15 16 17 18 19 20 21 22 23 24 25 26 27 28 29 30 31 32 33 34 35 36 37 38 39 40 41 42 43 44 45 46 47 48 49 50
000
ASUS43 KMKX 221100
RWRWI

WISCONSIN REGIONAL WEATHER ROUNDUP
NATIONAL WEATHER SERVICE MILWAUKEE/SULLIVAN WI
600 AM CDT TUE JUL 22 2014

NOTE: "FAIR" INDICATES FEW OR NO CLOUDS BELOW 12,000 FEET WITH NO
SIGNIFICANT WEATHER AND/OR OBSTRUCTIONS TO VISIBILITY.

WIZ001-002-006>008-014>016-023>028-221200-
NORTHWEST WISCONSIN

CITY           SKY/WX    TMP DP  RH WIND       PRES   REMARKS
SUPERIOR ARPT  PTCLDY    69  66  90 W13G20    29.74R
ASHLAND        CLOUDY    74  70  87 SW8       29.72R
HAYWARD        CLOUDY    77  73  87 SW13      29.78R
SIREN          PTCLDY    73  66  76 W14G21    29.80R
RICE LAKE      NOT AVBL
LADYSMITH      NOT AVBL
EAU CLAIRE     PTCLDY    78  73  84 SW10      29.82S HX  81
MENOMONIE      NOT AVBL
NEW RICHMOND   PTCLDY    77  75  93 SW10      29.82R
OSCEOLA        CLOUDY    78  72  83 W10       29.85R HX  80
$$

WIZ003>005-009-010-017-018-221200-
NORTH CENTRAL WISCONSIN

CITY           SKY/WX    TMP DP  RH WIND       PRES   REMARKS
WOODRUFF       CLOUDY    72  68  87 CALM      29.86R
RHINELANDER    CLOUDY    72  68  87 SW10      29.87F
EAGLE RIVER    NOT AVBL
LAND O LAKES   CLOUDY    73  67  84 N9        29.89R
PHILLIPS       NOT AVBL
TOMAHAWK       NOT AVBL
MEDFORD        NOT AVBL
MERRILL        NOT AVBL
$$

WIZ029-030-035-036-043>047-221200-
CENTRAL WISCONSIN

CITY           SKY/WX    TMP DP  RH WIND       PRES   REMARKS
WAUSAU         CLOUDY    73  68  84 S9        29.87S
MOSINEE        PTCLDY    72  70  94 S9        29.89F
MARSHFIELD     MOCLDY    73  68  84 SW10      29.88S
STEVENS POINT  MOCLDY    70  67  88 S8        29.90F
WAUPACA        NOT AVBL
WAUTOMA        NOT AVBL
WISC RAPIDS    MOCLDY    75  68  78 S10       29.90S
CAMP DOUGLAS   NOT AVBL
$$

WIZ011>013-019>022-031-037>040-048>050-221200-
NORTHEAST WISCONSIN

CITY           SKY/WX    TMP DP  RH WIND       PRES   REMARKS
ANTIGO         CLOUDY    69  67  96 S10       29.91F
STURGEON BAY   MOCLDY    66  63  88 S15       29.92F
GREEN BAY      PTCLDY    75  68  78 S13G22    29.91F HAZE
MANITOWOC      PTCLDY    64  63  94 S7        29.96F FOG
APPLETON       NOT AVBL
CLINTONVILLE   NOT AVBL
OSHKOSH        PTCLDY    73  68  84 S14G23    29.92F HAZE
$$

WIZ032>034-041-042-053>061-221200-
SOUTHWEST WISCONSIN

CITY           SKY/WX    TMP DP  RH WIND       PRES   REMARKS
LA CROSSE      CLEAR     78  69  73 S17       29.85F HX  80
SPARTA         NOT AVBL
VIROQUA        FAIR      74  68  82 S9        29.92F
BOSCOBEL       MOCLDY    77  67  71 SW7       29.92S
PRAIRIE DU CHI MOCLDY    77  65  66 S5        29.91S
PLATTEVILLE    FAIR      73  68  86 S9        29.98F
$$

WIZ056-057-062-063-064-067-068-221200-
SOUTH CENTRAL WISCONSIN

CITY           SKY/WX    TMP DP  RH WIND       PRES   REMARKS
BARABOO/DELLS  CLOUDY    73  66  76 S15G21    29.92F
LONE ROCK      NOT AVBL
WATERTOWN      PTCLDY    70  67  92 S8        29.98F
MADISON        MOCLDY    74  67  78 S17G24    29.96F
MIDDLETON      FAIR      74  67  78 S12G20    29.97S
MONROE         PTCLDY    70  66  88 S16       29.99F
JANESVILLE     NOT AVBL
$$

WIZ051-052-058>065-066-070>072-221200-
SOUTHEAST WISCONSIN

CITY           SKY/WX    TMP DP  RH WIND       PRES   REMARKS
MILWAUKEE      PTCLDY    71  65  81 SW13      30.01S
WAUKESHA       PTCLDY    75  64  69 S12       30.05R
MILWAUKEE/TIMM MOCLDY    70  63  78 S8        30.01S
RACINE         CLEAR     70  65  84 S6        30.04S
BURLINGTON     PTCLDY    67  64  90 S6        30.02S
KENOSHA        CLEAR     70  65  84 S8        30.03S
FOND DU LAC    PTCLDY    73  66  78 S16G23    29.94F
SHEBOYGAN      CLEAR     69  66  90 S9        29.97F
WEST BEND      PTCLDY    70  63  78 S9        29.99F
JUNEAU         PTCLDY    70  52  53 SE9       29.98F
$$

LSZ147-162-221200-
LAKE SUPERIOR

STATION/POSITION TIME  TEMP    WIND        PRES    WAVE
                       AIR SEA DIR/SP/G            HT/PER
                 (UTC) (F)     (DEG/KT/KT) (MB)    (FT/S)
W MID LAKE BUOY  0950   51 40  120/ 14/ 17 1006.4F   2/ 4
PORT WING        1020   69     220/  7/ 16 1006.4R
SAXON HARBOR     1040          190/  7/ 12 1005.8S
$$

LMZ867-665-643>646-221200-
LAKE MICHIGAN

STATION/POSITION TIME  TEMP    WIND        PRES    WAVE
                       AIR SEA DIR/SP/G            HT/PER
                 (UTC) (F)     (DEG/KT/KT) (MB)    (FT/S)
N MID LAKE BUOY  0950   62 56  200/ 14/ 16 1013.6F   2/ 4
NORTHPORT PIER   1000   64     140/  7/  9 1013.2F
KEWAUNEE LAKESHO 1000   55     180/ 10/ 12 1014.9F
SHEBOYGAN LAKESH 1000   68     180/ 16/ 16 1015.0F
PORT WASHINGTON  1000   59     190/  6/  9 1016.6R
ATWATER BUOY     1000   56     150/  8     1017.0R
MILWAUKEE LAKESH 1000   67     180/  7/  8   N/A
S MID LAKE BUOY  0950   70 69  180/ 12/ 14 1016.9R   1
KENOSHA   LAKESH 1000   68     210/  5/  8   N/A
$$

TC  - TEMPERATURE IN CELSIUS
VSB - VISIBILITY IN STATUTE MILES
WCI - WIND CHILL INDEX
HX  - HEAT INDEX



USA.gov is the U.S. government's official web portal to all federal, state and local government web resources and services.